Regional Weather Roundup
Issued by NWS Charleston, SC

Current Version | Previous Version | Graphics & Text | Print | Product List | Glossary On
Versions: 1 2 3 4 5 6 7 8 9 10 11 12 13 14 15 16 17 18 19 20 21 22 23 24 25 26 27 28 29 30 31 32 33 34 35 36 37 38 39 40 41 42 43 44 45 46 47 48 49 50
000
ASUS42 KCHS 270226
RWRCHS

REGIONAL WEATHER ROUNDUP
NATIONAL WEATHER SERVICE CHARLESTON SC
900 PM EST SUN FEB 26 2017

NOTE: "FAIR" INDICATES FEW OR NO CLOUDS BELOW 12,000 FEET WITH NO
SIGNIFICANT WEATHER AND/OR OBSTRUCTIONS TO VISIBILITY.

NOT ALL STATIONS ARE QUALITY CONTROLLED. USE DATA WITH CAUTION...
ESPECIALLY DEWPOINT OBSERVATIONS.

SCZ027-030-031-034>040-042>050-270300-
...SOUTHEAST SOUTH CAROLINA...

CITY           SKY/WX    TMP DP  RH WIND       PRES   REMARKS
N CHARLESTON   CLEAR     51  38  60 CALM      30.28R
WATERFRONT PRK   N/A     56  44  64 CALM      30.27R
MOUNT PLEASANT LGT RAIN  45  39  81 CALM      30.29R
JOHNS ISLAND   FAIR      46  41  81 CALM      30.29R
PINOPOLIS        N/A     54  39  58 VRB3      30.19R
MONCKS CORNER  FAIR      43  36  75 CALM      30.29R
SUMMERVILLE    FAIR      45  34  65 CALM      30.29R
BEAUFORT MCAS  CLEAR     49  40  71 CALM      30.27R
BEAUFORT ARPT  FAIR      50  43  76 CALM      30.28R
HILTON HEAD IS CLEAR     50  41  71 CALM      30.29R
WALTERBORO     CLEAR     43  34  70 CALM      30.29R
ALLENDALE      FAIR      45  30  57 CALM      30.26R

...SOUTHERN MIDLANDS AND PEE DEE...

CITY           SKY/WX    TMP DP  RH WIND       PRES   REMARKS
GEORGETOWN     FAIR      45  36  70 CALM      30.30R
KINGSTREE      FAIR      39  32  75 CALM      30.30R
ORANGEBURG     CLEAR     47  29  49 NE5       30.27R
BARNWELL       FAIR      43  30  61 CALM      30.27R
AIKEN          FAIR      41  27  56 CALM      30.30R
MANNING        FAIR      39  25  56 MISG      30.28R
COLUMBIA       CLEAR     43  32  65 CALM      30.27R
SUMTER         CLEAR     44  28  53 CALM      30.26R
FLORENCE       CLEAR     45  30  55 E3        30.28R
MYRTLE BEACH   CLEAR     46  37  71 CALM      30.30R
N MYRTLE BEACH CLEAR     43  39  86 CALM      30.29R

$$

GAZ063-065-086>088-099>101-113>116-118-119-134>141-150-270300-
...SOUTHEAST GEORGIA...

CITY           SKY/WX    TMP DP  RH WIND       PRES   REMARKS
SAVANNAH ARPT  CLEAR     53  37  54 SE3       30.27R
HUNTER AAF     CLEAR     50  41  70 CALM      30.25R
FORT STEWART   CLEAR     49  39  70 CALM      30.24R
STATESBORO     CLEAR     44  40  87 CALM      30.26R
SYLVANIA       CLEAR    N/A N/A N/A CALM      30.27R
CLAXTON        FAIR     N/A N/A N/A CALM      30.26S

...CSRA...CENTRAL AND FAR SOUTHEAST GEORGIA...

CITY           SKY/WX    TMP DP  RH WIND       PRES   REMARKS
THOMSON        CLEAR     43  36  74 CALM      30.30R
AUGUSTA-BUSH   CLEAR     45  30  55 CALM      30.25R
AUGUSTA-DANIEL CLEAR     55  23  28 CALM      30.26R
SWAINSBORO     FAIR      45  34  65 CALM      30.26R
VIDALIA        CLEAR     52  36  54 CALM      30.25R
EASTMAN        FAIR      44  25  46 CALM      30.28R
HAZLEHURST     FAIR      52  33  48 CALM      30.24R
ALMA           CLEAR     44  37  76 CALM      30.24R
WAYCROSS       CLEAR     53  41  64 CALM      30.26R
JESUP          FAIR      46  37  71 CALM      30.27R
BAXLEY         FAIR      46  41  81 CALM      30.25R
BRUNSWICK      CLEAR     46  45  93 CALM      30.27S
SAINT SIMONS   CLEAR     58  40  51 E7        30.26R

$$

SCZ027-028-034-036>038-045-046-048>050-GAZ119-141-270300-
...LAKE AND SUPPLEMENTAL COASTAL OBSERVATIONS...

STATION/POSITION TIME  TEMP    WIND        PRES    WAVE   SWELL
                       AIR SEA DIR/SP/G            HT/PER HT/PER/DIR
                 (UTC) (F)     (DEG/KT/KT) (MB)    (FT/S) (FT/S/D)
WINYAH BAY       0130   50     300/  1     1025.0S
LAKE MURRAY      0150   51        CALM     1024.4R
ACE BASIN NERRS  0130   48        CALM     1024.0S
FORT PULASKI     0200   57 63  160/  3/  5 1025.2
SAPELO ISLAND    0200   51     120/  3     1025.0

$$

ANZ835-935-AMZ111-154-330-350-352-354-370-450-454-472-270300-
...C-MAN AND BUOY OBSERVATIONS...

STATION/POSITION TIME  TEMP    WIND        PRES    WAVE   SWELL
                       AIR SEA DIR/SP/G            HT/PER HT/PER/DIR
                 (UTC) (F)     (DEG/KT/KT) (MB)    (FT/S) (FT/S/D)
BUOY 41004       0150   60 69   50/  4/  6 1025.1R   3/ 9   3/110/ 9
BUOY 41008       0150   61 62  110/ 10/ 12 1024.5R   2/10   2/100/10
FOLLY BEACH CMAN 0200   58     130/  4/  5 1025.8R
CAPERS NEARSHORE 0108   58 60  180/  2/  4 1024.7R
FRIPP NEARSHORE  0208   60 62  160/  8/  8 1024.9R


STATION/POSITION TIME  TEMP    WIND        PRES    WAVE   SWELL
                       AIR SEA DIR/SP/G            HT/PER HT/PER/DIR
                 (UTC) (F)     (DEG/KT/KT) (MB)    (FT/S) (FT/S/D)
5E ST. MARYS GA  0200      64                N/A     2/10   2/100/11
FRYING PAN BUOY  0210   58 69  310/  4/  8 1026.0
BUOY 41025       0150   56 72  300/ 12/ 16 1026.1R   4/ 9   3/120/ 9
CAPE LOOKOUT NC  0200   55     250/  5/  7 1025.8R
BUOY 41002       0150   65 71  350/  8/ 12 1024.8R   6/ 8   5/320/ 8
BUOY 41010       NOT AVBL
ST AUGUSTINE FL  0200   62 67   70/ 12/ 13 1025.3R


$$



USA.gov is the U.S. government's official web portal to all federal, state and local government web resources and services.